Comanche, TX

4:11 PM CDT on July 28, 2016 (GMT -0500)
Comanche

Weather History for KMKN - October, 2012

Change the Weather History Date:

Wednesday, October 31, 2012

  Actual Average (KSEP) Record (KSEP)
Temperature  
Mean Temperature 70 °F -  
Max Temperature 82 °F 73 °F 87 °F (1977)
Min Temperature 59 °F 51 °F 21 °F (1993)
Cooling Degree Days 6    
Growing Degree Days 20 (Base 50)    
Moisture  
Dew Point 45 °F    
Average Humidity 47    
Maximum Humidity 72    
Minimum Humidity 21    
Precipitation  
Precipitation 0.00 in - - ()
Sea Level Pressure  
Sea Level Pressure 30.02 in    
Wind  
Wind Speed 8 mph (West)    
Max Wind Speed 14 mph    
Max Gust Speed 20 mph    
Visibility 10 miles    
Events      
Averages and records for this station are not official NWS values.
T = Trace of Precipitation, MM = Missing Value Source: NWS Daily Summary

Daily Weather History Graph

Daily Weather History Graph

Search for Another Location

Airport or City:

Trip Planner

Search our weather history database for the weather conditions in past years. The results will help you decide how hot, cold, wet, or windy it might be!

Date:

Astronomy

Oct. 31, 2012 Rise Set
Actual Time 7:50 AM CDT 6:44 PM CDT
Civil Twilight 7:25 AM CDT 7:10 PM CDT
Nautical Twilight 6:56 AM CDT 7:39 PM CDT
Astronomical Twilight 6:27 AM CDT 8:07 PM CDT
Moon 8:04 PM CDT (10/31) 9:26 AM CDT (10/31)
Length of Visible Light 11h 44m
Length of Day
10h 54m
Full, 97% of the Moon is Illuminated
Oct 31
Full
Nov 6
Last Quarter
Nov 13
New
Nov 20
First Quarter
Nov 28
Full

Hourly Weather History & Observations

Time (CDT) Temp. Dew Point Humidity Pressure Visibility Wind Dir Wind Speed Gust Speed Precip Events Conditions
12:15 AM 60.8 °F 50.0 °F 68% 30.00 in 10.0 mi SSW 9.2 mph - N/A   Clear
12:35 AM 59.0 °F 50.0 °F 72% 30.00 in 10.0 mi SW 5.8 mph - N/A   Clear
12:55 AM 59.0 °F 50.0 °F 72% 30.00 in 10.0 mi SW 9.2 mph - N/A   Clear
1:15 AM 59.0 °F 50.0 °F 72% 30.00 in 10.0 mi SW 8.1 mph - N/A   Clear
1:35 AM 59.0 °F 50.0 °F 72% 30.00 in 10.0 mi SW 8.1 mph - N/A   Clear
1:55 AM 60.8 °F 50.0 °F 68% 29.99 in 10.0 mi SW 10.4 mph - N/A   Clear
2:15 AM 60.8 °F 50.0 °F 68% 29.99 in 10.0 mi SW 8.1 mph - N/A   Clear
2:35 AM 60.8 °F 50.0 °F 68% 29.99 in 10.0 mi SW 9.2 mph - N/A   Clear
2:55 AM 60.8 °F 50.0 °F 68% 29.99 in 10.0 mi SW 6.9 mph - N/A   Clear
3:15 AM 60.8 °F 50.0 °F 68% 29.99 in 10.0 mi WSW 4.6 mph - N/A   Clear
3:35 AM 60.8 °F 50.0 °F 68% 29.99 in 10.0 mi WSW 6.9 mph - N/A   Clear
3:55 AM 60.8 °F 50.0 °F 68% 29.99 in 10.0 mi WSW 11.5 mph - N/A   Clear
4:15 AM 60.8 °F 50.0 °F 68% 29.98 in 10.0 mi WSW 12.7 mph 16.1 mph N/A   Clear
4:35 AM 60.8 °F 50.0 °F 68% 29.98 in 10.0 mi WSW 11.5 mph 17.3 mph N/A   Clear
4:55 AM 60.8 °F 50.0 °F 68% 29.98 in 10.0 mi WSW 10.4 mph 17.3 mph N/A   Clear
5:15 AM 60.8 °F 50.0 °F 68% 29.99 in 10.0 mi WSW 13.8 mph 19.6 mph N/A   Clear
5:35 AM 60.8 °F 50.0 °F 68% 29.99 in 10.0 mi WSW 12.7 mph 16.1 mph N/A   Clear
5:55 AM 60.8 °F 50.0 °F 68% 29.99 in 10.0 mi WSW 9.2 mph - N/A   Clear
6:15 AM 60.8 °F 50.0 °F 68% 30.00 in 10.0 mi West 8.1 mph - N/A   Clear
6:35 AM 60.8 °F 50.0 °F 68% 30.00 in 10.0 mi West 8.1 mph - N/A   Clear
6:55 AM 60.8 °F 50.0 °F 68% 30.00 in 10.0 mi West 11.5 mph 17.3 mph N/A   Clear
7:15 AM 60.8 °F 50.0 °F 68% 30.01 in 10.0 mi WSW 11.5 mph - N/A   Clear
7:35 AM 60.8 °F 50.0 °F 68% 30.02 in 10.0 mi West 11.5 mph 19.6 mph N/A   Clear
7:55 AM 59.0 °F 48.2 °F 67% 30.03 in 10.0 mi West 5.8 mph - N/A   Clear
8:15 AM 60.8 °F 50.0 °F 68% 30.04 in 10.0 mi WNW 5.8 mph - N/A   Clear
8:35 AM 60.8 °F 50.0 °F 68% 30.05 in 10.0 mi West 5.8 mph - N/A   Clear
8:55 AM 60.8 °F 50.0 °F 68% 30.06 in 10.0 mi North 6.9 mph - N/A   Clear
9:15 AM 59.0 °F 50.0 °F 72% 30.07 in 10.0 mi NW 4.6 mph - N/A   Clear
9:35 AM 62.6 °F 50.0 °F 63% 30.07 in 10.0 mi West 9.2 mph - N/A   Clear
9:55 AM 66.2 °F 50.0 °F 56% 30.07 in 10.0 mi WNW 9.2 mph - N/A   Clear
10:15 AM 68.0 °F 50.0 °F 52% 30.07 in 10.0 mi NW 9.2 mph - N/A   Clear
10:35 AM 69.8 °F 50.0 °F 49% 30.08 in 10.0 mi NW 5.8 mph - N/A   Clear
10:55 AM 71.6 °F 50.0 °F 46% 30.08 in 10.0 mi NW 4.6 mph - N/A   Clear
11:15 AM 71.6 °F 50.0 °F 46% 30.08 in 10.0 mi NNW 8.1 mph - N/A   Clear
11:35 AM 73.4 °F 50.0 °F 44% 30.08 in 10.0 mi NW 6.9 mph - N/A   Clear
11:55 AM 73.4 °F 48.2 °F 41% 30.08 in 10.0 mi NNW 11.5 mph - N/A   Clear
12:35 PM 77.0 °F 48.2 °F 36% 30.08 in 10.0 mi NNW 9.2 mph - N/A   Clear
12:55 PM 77.0 °F 46.4 °F 34% 30.07 in 10.0 mi North 8.1 mph - N/A   Clear
1:15 PM 78.8 °F 46.4 °F 32% 30.06 in 10.0 mi North 6.9 mph - N/A   Clear
1:35 PM 78.8 °F 44.6 °F 30% 30.05 in 10.0 mi North 8.1 mph - N/A   Clear
2:15 PM 80.6 °F 42.8 °F 26% 30.04 in 10.0 mi NNE 6.9 mph - N/A   Clear
2:35 PM 80.6 °F 41.0 °F 24% 30.03 in 10.0 mi NW 5.8 mph - N/A   Clear
2:55 PM 80.6 °F 41.0 °F 24% 30.02 in 10.0 mi NNE 5.8 mph - N/A   Clear
3:15 PM 80.6 °F 41.0 °F 24% 30.01 in 10.0 mi Calm Calm - N/A   Clear
3:35 PM 82.4 °F 41.0 °F 23% 30.00 in 10.0 mi North 3.5 mph - N/A   Clear
3:55 PM 82.4 °F 41.0 °F 23% 30.00 in 10.0 mi NNE 8.1 mph - N/A   Clear
4:15 PM 82.4 °F 41.0 °F 23% 30.00 in 7.0 mi NE 3.5 mph - N/A   Clear
4:35 PM 82.4 °F 39.2 °F 21% 30.00 in 10.0 mi Calm Calm - N/A   Clear
4:55 PM 82.4 °F 39.2 °F 21% 30.00 in 10.0 mi NE 5.8 mph - N/A   Clear
5:15 PM 80.6 °F 39.2 °F 23% 30.00 in 10.0 mi NE 6.9 mph - N/A   Clear
5:35 PM 80.6 °F 41.0 °F 24% 30.00 in 10.0 mi NNE 5.8 mph - N/A   Clear
5:55 PM 78.8 °F 39.2 °F 24% 30.00 in 10.0 mi ENE 4.6 mph - N/A   Clear
6:15 PM 78.8 °F 41.0 °F 26% 30.00 in 10.0 mi ENE 3.5 mph - N/A   Clear
6:35 PM 77.0 °F 39.2 °F 26% 30.00 in 10.0 mi ENE 3.5 mph - N/A   Clear
6:55 PM 75.2 °F 37.4 °F 25% 30.01 in 10.0 mi East 4.6 mph - N/A   Clear
7:15 PM 73.4 °F 35.6 °F 25% 30.02 in 10.0 mi East 4.6 mph - N/A   Clear
7:35 PM 71.6 °F 35.6 °F 27% 30.02 in 10.0 mi East 4.6 mph - N/A   Clear
7:55 PM 71.6 °F 35.6 °F 27% 30.03 in 10.0 mi East 4.6 mph - N/A   Clear
8:15 PM 71.6 °F 35.6 °F 27% 30.03 in 10.0 mi East 5.8 mph - N/A   Clear
8:35 PM 69.8 °F 35.6 °F 28% 30.03 in 10.0 mi SE 4.6 mph - N/A   Clear
8:55 PM 69.8 °F 37.4 °F 31% 30.04 in 10.0 mi South 3.5 mph - N/A   Clear
9:15 PM 68.0 °F 37.4 °F 33% 30.04 in 10.0 mi Calm Calm - N/A   Clear
9:35 PM 68.0 °F 37.4 °F 33% 30.04 in 10.0 mi South 3.5 mph - N/A   Clear
9:55 PM 66.2 °F 37.4 °F 35% 30.05 in 10.0 mi South 4.6 mph - N/A   Clear
10:15 PM 64.4 °F 37.4 °F 37% 30.05 in 10.0 mi South 4.6 mph - N/A   Clear
10:35 PM 64.4 °F 37.4 °F 37% 30.05 in 10.0 mi SSW 5.8 mph - N/A   Clear
10:55 PM 62.6 °F 37.4 °F 39% 30.05 in 10.0 mi SSW 6.9 mph - N/A   Clear
11:15 PM 62.6 °F 37.4 °F 39% 30.06 in 10.0 mi SSW 6.9 mph - N/A   Clear
11:35 PM 62.6 °F 37.4 °F 39% 30.06 in 10.0 mi SSW 6.9 mph - N/A   Clear
11:55 PM 62.6 °F 39.2 °F 42% 30.05 in 10.0 mi SSW 8.1 mph - N/A   Clear